Weather Service Report


361 
ASUS45 KPSR 151210
RWRAZ 

ARIZONA HOURLY REGIONAL WEATHER ROUNDUP
NATIONAL WEATHER SERVICE PHOENIX AZ
500 AM MST MON OCT 15 2018

NOTE: FAIR INDICATES FEW OR NO CLOUDS BELOW 12,000 FEET WITH NO
SIGNIFICANT WEATHER AND/OR OBSTRUCTIONS TO VISIBILITY.

AZZ001>003-036-151300-
NORTHWEST ARIZONA
  
CITY           SKY/WX    TMP DP  RH WIND       PRES   REMARKS
KINGMAN        CLEAR     39  21  48 E12       30.16R WCI  32          
6HR MIN TEMP:  39; 6HR MAX TEMP:  50;                                

$$

AZZ004>008-015-016-018-151300-
NORTH CENTRAL ARIZONA
  
CITY           SKY/WX    TMP DP  RH WIND       PRES   REMARKS
GRAND CANYON   CLEAR     34  18  52 E17G28    30.20S WCI  23          
6HR MIN TEMP:  34; 6HR MAX TEMP:  39;                                

WILLIAMS       CLEAR     32  18  55 E5        30.15R WCI  27          
PRESCOTT       CLEAR     37  27  67 W6        30.11S WCI  32          
6HR MIN TEMP:  34; 6HR MAX TEMP:  45;                                

FLAGSTAFF      CLEAR     31  15  52 NE18      30.18S WCI  19          
6HR MIN TEMP:  31; 6HR MAX TEMP:  38;                                

PAYSON         CLOUDY    43  23  45 NE12      30.12S                  
PAGE           CLEAR     45  21  38 N9        30.26R                  
6HR MIN TEMP:  45; 6HR MAX TEMP:  49;                                

$$

AZZ009>014-017-151300-
NORTHEAST ARIZONA
  
CITY           SKY/WX    TMP DP  RH WIND       PRES   REMARKS
WINSLOW        PTCLDY    38  24  57 NW7       30.21R WCI  33          
6HR MIN TEMP:  36; 6HR MAX TEMP:  48;                                

SAINT JOHNS    CLOUDY    39  35  86 N9        30.16R WCI  33          
6HR MIN TEMP:  39; 6HR MAX TEMP:  47; 6HR PCP:  0.12;                

WINDOW ROCK    MOCLDY    34  19  54 N8        30.21R WCI  27          
6HR MIN TEMP:  34; 6HR MAX TEMP:  41;                                

SHOW LOW       LGT RAIN  37  30  75 N9        30.19S WCI  31          
$$

AZZ540-542>544-546-548-151300-
GREATER PHOENIX AREA
  
CITY           SKY/WX    TMP DP  RH WIND       PRES   REMARKS
PHOENIX        PTCLDY    64  60  87 CALM      29.94R                  
6HR MIN TEMP:  64; 6HR MAX TEMP:  70;                                

BUCKEYE        CLEAR     57  45  62 NW7       29.97S                  
LUKE AFB       CLEAR     60  44  55 N9        29.96R                  
6HR MIN TEMP:  60; 6HR MAX TEMP:  66;                                

DEER VALLEY    CLEAR     60  41  49 NE8       29.97S                  
6HR MIN TEMP:  60; 6HR MAX TEMP:  66; 6HR PCP: TRACE;                

SCOTTSDALE     MOCLDY    65  40  39 N8        29.98R                  
6HR MIN TEMP:  65; 6HR MAX TEMP:  68; 6HR PCP: TRACE;                

$$

AZZ539-553-151300-
SOUTHWEST MARICOPA COUNTY AND PINAL COUNTY
  
CITY           SKY/WX    TMP DP  RH WIND       PRES   REMARKS
CASA GRANDE    LGT RAIN  62  60  93 S3        29.97S                  
6HR MIN TEMP:  60; 6HR MAX TEMP:  64;                                

GILA BEND      FAIR      57  53  86 W7        29.96R                  
6HR MIN TEMP:  57; 6HR MAX TEMP:  66;                                

$$

AZZ503-504-507>509-151300-
SOUTHEAST ARIZONA
  
CITY           SKY/WX    TMP DP  RH WIND       PRES   REMARKS
TUCSON         PTCLDY    56  53  90 CALM      30.00S                  
6HR MIN TEMP:  56; 6HR MAX TEMP:  62;                                

DAVIS-MONTHAN  CLEAR     55  51  89 S6        29.99S                  
6HR MIN TEMP:  55; 6HR MAX TEMP:  59;                                

NOGALES        PTCLDY    49  47  93 CALM      30.03S                  
6HR MIN TEMP:  49; 6HR MAX TEMP:  53;                                

SIERRA VISTA   CLOUDY    51  47  88 SW3       30.07R                  
6HR MIN TEMP:  50; 6HR MAX TEMP:  55;                                

DOUGLAS        PTCLDY    49  48  97 N12       30.03F                  
6HR MIN TEMP:  47; 6HR MAX TEMP:  52;                                

SAFFORD        PTCLDY    54  54 100 SW3       30.00S                  
6HR MIN TEMP:  53; 6HR MAX TEMP:  57;                                

$$

AZZ532-151300-
SOUTHWEST ARIZONA
  
CITY           SKY/WX    TMP DP  RH WIND       PRES   REMARKS
YUMA           CLEAR     65  15  14 NE17      29.99R                  
6HR MIN TEMP:  65; 6HR MAX TEMP:  74;                                

$$

CAZ041-043-047-048-061-525>527-560>570-151300-
SOUTHERN CALIFORNIA
  
CITY           SKY/WX    TMP DP  RH WIND       PRES   REMARKS
DOWNTOWN L.A.  CLEAR    N/A N/A N/A CALM      30.01R                  
L.A. AIRPORT   PTCLDY    60  57  89 E3        30.01R                  
6HR MIN TEMP:  60; 6HR MAX TEMP:  66;                                

SAN DIEGO      PTCLDY    63  58  83 NE5       30.00R                  
6HR MIN TEMP:  63; 6HR MAX TEMP:  68;                                

BURBANK        CLEAR     67  33  28 E13G21    30.01R                  
6HR MIN TEMP:  58; 6HR MAX TEMP:  69;                                

ONTARIO        PTCLDY    67  15  13 NE23G36   30.03R                  
6HR MIN TEMP:  59; 6HR MAX TEMP:  72;                                

RIVERSIDE      CLEAR     67  15  13 NE17G28   30.06R                  
6HR MIN TEMP:  59; 6HR MAX TEMP:  68;                                

PALM SPRINGS   CLEAR     71  12  10 NW16G28   30.11R                  
6HR MIN TEMP:  70; 6HR MAX TEMP:  77;                                

EL CENTRO NAS  CLEAR     61  30  31 SW5       30.04R                  
6HR MIN TEMP:  60; 6HR MAX TEMP:  72;                                

IMPERIAL       CLEAR     64  26  23 VRB3      30.02R                  
6HR MIN TEMP:  64; 6HR MAX TEMP:  74;                                

BLYTHE         CLEAR     60  19  20 N14       30.06R                  
6HR MIN TEMP:  60; 6HR MAX TEMP:  70;                                

NEEDLES        CLEAR     60  14  16 N23G29    30.11R                  
6HR MIN TEMP:  60; 6HR MAX TEMP:  66;                                

$$

NVZ020-UTZ003-151300-
SOUTHERN NEVADA-UTAH
  
CITY           SKY/WX    TMP DP  RH WIND       PRES   REMARKS
LAS VEGAS      CLEAR     53   6  15 N17       30.23R                  
6HR MIN TEMP:  53; 6HR MAX TEMP:  57;                                

SALT LAKE CITY CLEAR     31  24  75 SW3       30.41R                  
6HR MIN TEMP:  31; 6HR MAX TEMP:  35;                                

$$

NMZ009-TXZ055-151300-
NEW MEXICO-WEST TEXAS
  
CITY           SKY/WX    TMP DP  RH WIND       PRES   REMARKS
ALBUQUERQUE    CLOUDY    35  23  61 E28G37    30.23R WCI  22          
6HR MIN TEMP:  35; 6HR MAX TEMP:  40; 6HR PCP: TRACE;                

EL PASO        PTCLDY    44  34  67 E9        30.15R                  
6HR MIN TEMP:  44; 6HR MAX TEMP:  58;                                

$$


........................KEY........................
SKY/WX - SKY CONDITION/WEATHER
TMP    - TEMPERATURE IN FAHRENHEIT
DP     - DEW POINT IN FAHRENHEIT
RH     - RELATIVE HUMIDITY IN PERCENT
WIND   - DIRECTION AND SPEED IN MILES PER HOUR (MPH)
VRB    - VARIABLE WIND DIRECTION
PRES   - MEAN SEA LEVEL PRESSURE IN INCHES OF MERCURY
         F - FALLING PRESSURE   R - RISING PRESSURE
         S - STEADY PRESSURE
VSB    - VISIBILITY IN MILES
HX     - HEAT INDEX IN FAHRENHEIT
WCI    - WIND CHILL INDEX IN FAHRENHEIT
TC     - TEMPERATURE IN CELSIUS WHICH IS ALSO KNOWN AS
         TEMPERATURE IN CENTIGRADE
AFB    - AIR FORCE BASE
         LUKE AFB IS LUKE AIR FORCE BASE
         DAVIS-MONTHAN IS DAVIS-MONTHAN AIR FORCE BASE
NAS    - NAVAL AIR STATION
         EL CENTRO NAS IS EL CENTRO NAVAL AIR STATION
N/A    - NOT AVAILABLE

  

Return to Home page


Western Regional Climate Center, wrcc@dri.edu